Regional Weather Roundup
Issued by NWS

Home | Current Version | Previous Version | Text Only | Print | Product List | Glossary On
Versions: 1 2 3 4 5 6 7 8 9 10 11 12 13 14 15 16 17 18 19 20 21 22 23 24 25 26 27 28 29 30 31 32 33 34 35 36 37 38 39 40 41 42 43 44 45 46 47 48 49 50
000
ASUS43 KLSX 050007
RWRMO

WEATHER SUMMARY FOR MISSOURI
NATIONAL WEATHER SERVICE SPRINGFIELD MO
700 PM CDT MON MAY 04 2015

NOTE: "FAIR" INDICATES FEW OR NO CLOUDS BELOW 12,000 FEET WITH NO
       SIGNIFICANT WEATHER AND/OR OBSTRUCTIONS TO VISIBILITY.
       CURRENT SKY AND/OR WEATHER CONDITIONS ARE NOT AVAILABLE FOR
       CHILLICOTHE AND FARMINGTON.

MOZ001>031-035>038-043-044-053-054-050100-
...NORTHERN AND WESTERN MISSOURI...

CITY           SKY/WX    TMP DP  RH WIND       PRES   REMARKS
KANSAS CTY INT CLOUDY    64  61  90 N16       30.00R THUNDER
6HR MIN TEMP:  64; 6HR MAX TEMP:  83; 6HR PCP: TRACE;

KANSAS C DTWN  HVY RAIN  79  62  56 SW13G23   29.96R
6HR MIN TEMP:  78; 6HR MAX TEMP:  86; 6HR PCP:  0.03;

LEE`S SUMMIT   MOSUNNY   78  60  53 S13G23    29.98R
6HR MIN TEMP:  76; 6HR MAX TEMP:  83;

ST JOSEPH      LGT RAIN  67  65  93 CALM      30.02R FOG
6HR MIN TEMP:  65; 6HR MAX TEMP:  82; 6HR PCP:  0.58;

CHILLICOTHE      N/A     72  66  81 CALM      30.01S
6HR MIN TEMP:  72; 6HR MAX TEMP:  81;

KIRKSVILLE     MOSUNNY   73  63  70 S5        30.04F
6HR MIN TEMP:  73; 6HR MAX TEMP:  78;


$$
MOZ066>068-077>081-088>096-101>105-050100-
...SOUTHWEST MISSOURI...

CITY           SKY/WX    TMP DP  RH WIND       PRES   REMARKS
SPRINGFIELD    MOSUNNY   79  57  46 S13       30.04F
6HR MIN TEMP:  76; 6HR MAX TEMP:  83;

JOPLIN         MOSUNNY   78  58  49 S13       30.01F
6HR MIN TEMP:  77; 6HR MAX TEMP:  82;


$$
MOZ032>034-039>042-045>050-055>058-069>072-050100-
...CENTRAL MISSOURI...

CITY           SKY/WX    TMP DP  RH WIND       PRES   REMARKS
COLUMBIA       PTSUNNY   77  60  55 S8        30.02F
6HR MIN TEMP:  73; 6HR MAX TEMP:  82;

JEFFERSON CITY MOSUNNY   82  57  42 S8        30.01S
6HR MIN TEMP:  77; 6HR MAX TEMP:  84;

ROLLA          SUNNY     77  56  48 S12       30.04F
6HR MIN TEMP:  77; 6HR MAX TEMP:  82;

SEDALIA        MOSUNNY   78  59  51 S10       30.02F
6HR MIN TEMP:  76; 6HR MAX TEMP:  83;

WHITEMAN AFB   PTSUNNY   76  62  60 S9        29.99S
OSAGE BEACH    MOSUNNY  N/A N/A N/A S9        30.02F

$$
MOZ051-052-059>065-050100-
...EAST CENTRAL MISSOURI...

CITY           SKY/WX    TMP DP  RH WIND       PRES   REMARKS
ST LOUIS INTL  MOCLDY    83  55  38 SW8       30.04F
6HR MIN TEMP:  83; 6HR MAX TEMP:  86;

SPIRIT OF STL  PTCLDY    81  58  45 CALM      30.02F
6HR MIN TEMP:  80; 6HR MAX TEMP:  84;

ST CHARLES     PTCLDY    83  56  39 SW10      30.02F
6HR MIN TEMP:  80; 6HR MAX TEMP:  85;


$$
MOZ072>076-082>087-097>100-106>115-050100-
...SOUTH CENTRAL AND SOUTHEAST MISSOURI...

CITY           SKY/WX    TMP DP  RH WIND       PRES   REMARKS
CAPE GIRARDEAU CLEAR     80  55  42 S10       30.10S
6HR MIN TEMP:  80; 6HR MAX TEMP:  87;

FARMINGTON     PTCLDY    79  54  41 S8        30.12F
6HR MIN TEMP:  79; 6HR MAX TEMP:  82;

POPLAR BLUFF   CLEAR     80  54  40 S10G18    30.09S
6HR MIN TEMP:  80; 6HR MAX TEMP:  85; 6HR PCP: TRACE;

WEST PLAINS    SUNNY     78  53  41 S8        30.10F
6HR MIN TEMP:  77; 6HR MAX TEMP:  81;


$$



USA.gov is the U.S. government's official web portal to all federal, state and local government web resources and services.